This demonstration page uses our WeatherBlox Daily Observations layout. Learn more.

Left ArrowRight Arrow

39.12711, -84.51439

Hourly Observations for September 25, 2016

Temp ( °F °C ) Dew Point ( °F °C ) Humidity (%) Winds ( mph kmh ) Pressure ( in mb ) Visibility ( mi km ) Precip ( " mm )
12:53 am 00:53 Clear with Mist and Fog 66 18.9 66 18.9 100 100 ENE 3 6 30.12 1020 3 5 0.00 0.00
1:53 am 01:53 Clear with Mist and Fog 65 18.3 65 18.3 100 100 Calm 30.13 1020 3 5 0.00 0.00
2:07 am 02:07 Clear with Mist and Fog 65 18.3 65 18.3 100 100 Calm 30.12 1020 2 3 0.00 0.00
2:17 am 02:17 Clear with Mist and Fog 65 18.3 65 18.3 100 100 Calm 30.12 1020 4 6 0.00 0.00
2:53 am 02:53 Clear 65 18.3 65 18.3 100 100 Calm 30.13 1020 7 11 0.00 0.00
3:53 am 03:53 Clear 63 17.2 63 17.2 100 100 NE 5 7 30.13 1020 7 11 0.00 0.00
4:53 am 04:53 Clear 63 17.2 63 17.2 100 100 Calm 30.12 1020 9 14 0.00 0.00
5:53 am 05:53 Clear 61 16.1 61 16.1 100 100 NNE 3 6 30.13 1020 10 16 0.00 0.00
6:53 am 06:53 Clear 60 15.6 60 15.6 100 100 NNE 3 6 30.14 1021 10 16 0.00 0.00
7:53 am 07:53 Sunny 59 15 59 15 100 100 Calm 30.14 1021 10 16 0.00 0.00
8:53 am 08:53 Sunny 64 17.8 60 15.6 87 87 NNE 3 6 30.15 1021 10 16 0.00 0.00
9:53 am 09:53 Sunny 68 20 61 16.1 78 78 Calm 30.14 1021 10 16 0.00 0.00
10:53 am 10:53 Sunny 72 22.2 63 17.2 73 73 Calm 30.15 1021 10 16 0.00 0.00
11:53 am 11:53 Sunny 76 24.4 65 18.3 69 69 Calm 30.13 1020 10 16 0.00 0.00
12:53 pm 12:53 Sunny 80 26.7 66 18.9 62 62 Calm 30.11 1020 10 16 0.00 0.00
1:53 pm 13:53 Sunny 81 27.2 67 19.4 62 62 SW 6 9 30.09 1019 10 16 0.00 0.00
2:53 pm 14:53 Sunny 83 28.3 66 18.9 57 57 Calm 30.06 1018 10 16 0.00 0.00
3:53 pm 15:53 Mostly Sunny 85 29.4 67 19.4 55 55 Calm 30.05 1018 10 16 0.00 0.00
4:53 pm 16:53 Mostly Cloudy 84 28.9 66 18.9 55 55 Calm 30.03 1017 10 16 0.00 0.00
5:53 pm 17:53 Mostly Sunny 83 28.3 67 19.4 59 59 ESE 3 6 30.02 1017 10 16 0.00 0.00
6:53 pm 18:53 Sunny 78 25.6 72 22.2 82 82 Calm 30.01 1016 10 16 0.00 0.00
7:53 pm 19:53 Clear 72 22.2 68 20 87 87 Calm 30.01 1016 9 14 0.00 0.00
8:53 pm 20:53 Clear 69 20.6 68 20 96 96 Calm 30.02 1017 8 13 0.00 0.00
9:53 pm 21:53 Clear 68 20 68 20 100 100 Calm 30.02 1017 7 11 0.00 0.00
10:53 pm 22:53 Clear with Mist and Fog 67 19.4 67 19.4 100 100 Calm 30.02 1017 5 8 0.00 0.00
11:27 pm 23:27 Clear with Mist and Fog 66 18.9 66 18.9 100 100 Calm 30.00 1016 2 3 0.00 0.00
11:45 pm 23:45 Clear with Mist and Fog 66 18.9 66 18.9 100 100 Calm 30.00 1016 3 5 0.00 0.00
11:53 pm 23:53 Clear with Mist and Fog 66 18.9 66 18.9 100 100 Calm 30.01 1016 3 5 0.00 0.00

Powered by AerisWeather